Regional Weather Roundup
Issued by NWS Boston, MA

Home | Current Version | Previous Version | Text Only | Print | Product List | Glossary On
Versions: 1 2 3 4 5 6 7 8 9 10 11 12 13 14 15 16 17 18 19 20 21 22 23 24 25 26 27 28 29 30 31 32 33 34 35 36 37 38 39 40 41 42 43 44 45 46 47 48 49 50
520
ASUS41 KBOX 020110
RWRBOX

REGIONAL WEATHER ROUNDUP
NATIONAL WEATHER SERVICE TAUNTON MA
900 PM EDT SUN MAY 01 2016

NOTE:  "FAIR" INDICATES FEW OR NO CLOUDS BELOW 12,000 FEET WITH NO
SIGNIFICANT WEATHER AND/OR OBSTRUCTIONS TO VISIBILITY.  THE FOLLOWING
OBSERVATION LOCATIONS DO NOT REPORT PRESENT WEATHER...PROVINCETOWN...
SMITHFIELD...BLOCK ISLAND...KEENE...AND OXFORD.

MAZALL-020200-
EASTERN MASSACHUSETTS

CITY           SKY/WX    TMP DP  RH WIND       PRES   REMARKS
BOSTON         LGT RAIN  44  37  76 SE6       30.19F
BEVERLY        LGT RAIN  44  33  65 S6        30.18S
LAWRENCE       CLOUDY    46  34  62 SE5       30.20S
BEDFORD        CLOUDY    42  37  82 CALM      30.17S
BLUE HILL        N/A     39  37  92 SE7       30.15F
NORWOOD        LGT RAIN  42  38  85 CALM      30.18F
MARSHFIELD     CLOUDY    45  41  87 S3        30.20S
PLYMOUTH       CLOUDY    43  41  93 CALM      30.19S
TAUNTON        LGT RAIN  43  40  89 SE3       30.17F FOG
NEW BEDFORD    LGT RAIN  43  42  97 NE3       30.17S
$$

MAZALL-020200-
CAPE COD AND THE ISLANDS

CITY           SKY/WX    TMP DP  RH WIND       PRES   REMARKS
FALMOUTH       CLOUDY    45  45 100 CALM      30.18S FOG
HYANNIS        LGT RAIN  46  44  93 VRB5      30.17S FOG
CHATHAM        LGT RAIN  45  44  97 E8        30.19S
PROVINCETOWN   LGT RAIN  45  43  93 SE3       30.20S
NANTUCKET      LGT RAIN  48  45  89 E9        30.17S FOG
MARTHAS VNYRD  LGT RAIN  46  45  96 E5        30.17S FOG
$$

MAZALL-020200-
CENTRAL AND WESTERN MASSACHUSETTS

CITY           SKY/WX    TMP DP  RH WIND       PRES   REMARKS
WORCESTER      CLOUDY    38  35  89 SE6       30.14F
FITCHBURG      CLOUDY    45  34  65 S8        30.17R
ORANGE         CLOUDY    43  34  70 S6        30.15S
SPRINGFIELD    NOT AVBL
WESTFIELD      CLOUDY    42  38  85 SE3       30.15F
NORTH ADAMS    CLOUDY    43  35  73 E13       30.10F
PITTSFIELD     CLOUDY    39  36  89 E8        30.08F
$$

RIZALL-020200-
RHODE ISLAND

CITY           SKY/WX    TMP DP  RH WIND       PRES   REMARKS
PROVIDENCE     LGT RAIN  42  39  89 E7        30.17F FOG
NEWPORT        CLOUDY    42  40  92 E5        30.15F FOG
BLOCK ISLAND   LGT RAIN  42  42 100 NE10      30.15F FOG
SMITHFIELD       N/A     39  36  87 CALM      30.15F
WESTERLY       LGT RAIN  43  40  89 E8        30.14F
$$

CTZALL-020200-
CONNECTICUT

CITY           SKY/WX    TMP DP  RH WIND       PRES   REMARKS
BRADLEY INTL   CLOUDY    42  38  85 E3        30.15R
HARTFORD       LGT RAIN  44  39  82 N3        30.16R
BRIDGEPORT     CLOUDY    44  42  93 NE10      30.13S
DANBURY        CLOUDY    42  39  89 VRB7      30.14R
GROTON         LGT RAIN  43  43 100 E9        30.13F FOG
NEW HAVEN      CLOUDY    42  40  92 NE6       30.14S
CHESTER        LGT RAIN  41  39  93 NE5       30.13F
MERIDEN        CLOUDY    43  39  86 NE5       30.15S
WILLIMANTIC    CLOUDY    43  39  86 NE3       30.15S
OXFORD         CLOUDY    39  36  87 E5        30.14S FOG
$$

MEZ002-015-021-024-NHZ003-005-008-011-012-014-VTZ005-008-020200-
NORTHERN NEW ENGLAND

CITY           SKY/WX    TMP DP  RH WIND       PRES   REMARKS
PORTLAND ME    CLOUDY    45  39  79 S3        30.21S
BANGOR ME      CLOUDY    48  34  58 S3        30.21R
CONCORD NH     CLOUDY    43  36  76 SE5       30.17S
MANCHESTER NH  CLOUDY    45  34  65 SE9       30.15S
NASHUA NH      CLOUDY    46  34  62 SE7       30.17S
PORTSMOUTH NH  CLOUDY    45  38  77 SE6       30.18S
JAFFREY NH     CLOUDY    43  31  62 CALM      30.14S
KEENE NH       CLOUDY    46  28  49 S7        30.13F
BURLINGTON VT  LGT RAIN  47  43  86 S6        30.08S
MT. WASHINGTON FOG       25  25 100 SE44        N/A  VSB 0   WCI   5
$$

NYZ052-076-020200-
EASTERN NEW YORK

CITY           SKY/WX    TMP DP  RH WIND       PRES   REMARKS
ALBANY         CLOUDY    45  38  76 SE6       30.09S
NEW YORK CITY  LGT RAIN  46  42  86 NE10      30.12R FOG
$$

ANZALL-020200-
MARINE OBSERVATIONS

STATION/POSITION TIME  TEMP    WIND        PRES    VSBY  WAVE
                       AIR SEA DIR/SP/G                  HT/PER
                 (UTC) (F)     (DEG/KT/KT) (MB)    (MI)  (FT/S)
BOSTON BUOY      0050   45 47  170/  6/  6 1021.2F         3/10
BUZZARDS BAY     0000   43     100/  7/  8 1022.3F
NANTUCKET SOUND  0050   47 50  110/ 12/ 14 1021.8F         2/10
MASS BAY-STELLWA 0004   44 46                N/A    1 7/8  5/ 9
ISLE OF SHOALS   0100   45     150/ 15/ 16 1021.3F
S OF BLOCK IS    NOT AVBL
$$

......................KEY.........................
  SKY/WX - SKY CONDITION/PRESENT WEATHER
  TMP    - TEMPERATURE IN FAHRENHEIT
  DWPT   - DEWPOINT IN FAHRENHEIT
  RH     - RELATIVE HUMIDITY IN PERCENT
  WIND   - DIRECTION AND SPEED IN MPH
  PRES   - MEAN SEA LEVEL PRESSURE IN INCHES OF HG
  WCI    - WIND CHILL INDEX
  VSB    - VISIBILITY IN MILES
  HX     - HEAT INDEX
  TC     - TEMPERATURE IN CELSIUS
  VRB    - VARIABLE WIND DIRECTION
  N/A    - NOT AVAILABLE




USA.gov is the U.S. government's official web portal to all federal, state and local government web resources and services.